"Pseudo-MPEC" for P10OuZL

Created 2019 Jun 15 19:09:23 UT using Find_Orb

Click here for an explanation of pseudo-MPECs

 
 Astrometry: 
     P10OuZL  C2019 05 31hdoC36]!_pZDZcN'[Ef@h^FHn?uTAgC`6fs#tfs/dTrl5T7!tZ9tF52
     P10OuZL  C2019 05 31(-mW%HSFk9\12c4`)-om;B_PvP+JdDEG+8$e`W1+pn\1PC:8laS4F52
     P10OuZL  C2019 06 01F^dPi5;h4M@8AxJHC+Os(Cet*s/*WM4)h*Ep1f.,X2fP/KY]-H(`F51
     P10OuZL  C2019 06 01AkjRr%S5.u?.k*tjlX#2c2^BIEyr'_mL*FE/yZqNyAstrometryYF51
     P10OuZL  C2019 06 01@^StNE,+Xoplg;k9wP-IZ-nC,No4(N.@\(n[59^rcP9YASVr:%,GF51
     P10OuZL |C2019 06 03N*-VyA^MP$c2MEGM^,E685Xkk*_Jj,xtmredacted;Usim!?Ld+y807
     P10OuZL |C2019 06 03/SH9%JO=9ac*kH.6/a0*kc_d5Iph3#H[pM_ykxaT\,VjBeQSBG73807
     P10OuZL |C2019 06 031vRyHC2%kmus,Nd*irfv(1rnb%60p#uFUOFWr2\Z17f`Uq)'7%/H807
     P10OuZL |C2019 06 06R#e1mO(qJ(y(^L;tju`[a62)=JcLL;*7wfbHjkODs3p4a:cGuKG1807
     P10OuZL |C2019 06 067Q(a:.4/8K5jlx8\CgTv+jHceMePe20clickA:?Y@TIf,bHO))F^807
     P10OuZL KC2019 06 06Y+TJSqi[\@FR,LbMA'-;60'vLOV2nleHrs+S0%yb2%_G`FbPWCM)691
     P10OuZL KC2019 06 06r-9_3-Qx/mp)RJ9X#UD)4)*u*FKaiRD_^!rERJUEA8QE+/`-`u7j691
     P10OuZL KC2019 06 06Ju7u6NZB3rC`O0st+1Pp5-VCm+47//N+y/3Y+,)`JXqw-b3-X:hy691
     P10OuZL  C2019 06 08aN3x]herev'Bu6U/uVo$p?]gpDD2W+j3E23,:*xQ1@!P5w`*!V#8F51
     P10OuZL  C2019 06 08xM6v_G'for)[pn20np.Eexplanation\)L7Y;4sj)W\'+sWD@^(UF51

Station data:
(691) Steward Observatory, Kitt Peak - Spacewatch  (N31.962174 W111.600327)
   US/Arizona.  Observer J. V. Scotti. 0.9-m f/3 reflector + CCD.
(807) Cerro Tololo Observatory, La Serena  (S30.169136 W70.805900)  Chile.
(F51) Pan-STARRS 1, Haleakala  (N20.707235 W156.255910)  US/Hawaii.
   Observers N. Primak, A. Schultz, S. Watters, J. Thiel, T. Goggia. Measurer
   PS1 Science Consortium. 1.8-m Ritchey-Chrétien + CCD.
(F52) Pan-STARRS 2, Haleakala  (N20.707384 W156.255910)  US/Hawaii. 1.8-m
   Ritchey-Chrétien + CCD.

Orbital elements:  P10OuZL
   Perihelion 2020 Jul 27.387744 +/- 4.61 TT =  9:18:21 (JD 2459057.887744)
Epoch 2019 Jun  8.0 TT = JDT 2458642.5   Earth MOID: 0.7042   AutoNEOCP
M 198.87021283 +/- 1.3              (J2000 ecliptic)
n   0.38790212 +/- 0.00142          Peri.  176.32723 +/- 1.0
a   1.86203545 +/- 0.00453          Node   242.45587 +/- 0.09
e   0.0915537 +/- 0.00186           Incl.   19.72751 +/- 0.24
P   2.54/928.05d           H 20.1   G  0.15   U  8.4  
q 1.69155906 +/- 0.000915    Q 2.03251184 +/- 0.00831
From 15 observations 2019 May 31-June 8; mean residual 0".20
Residuals in arcseconds: 
190531 F52  .00   .01+    190603 807  .49+  .15+    190606 691  .03-  .03+    
190531 F52  .06-  .07-    190603 807  .08+  .46+    190606 691  .31+  .30+    
190601 F51  .08-  .10+    190603 807  .04-  .46-    190606 691  .03-  .01-    
190601 F51  .04+  .08-    190606 807  .33-  .24-    190608 F51  .01-  .02+    
190601 F51  .13-  .03-    190606 807  .24-  .08-    190608 F51  .12+  .04-    

Ephemerides (geocentric):
Date (UTC) HH   RA              Dec         delta   r     elong  mag " sig PA
---- -- -- --  -------------   -----------  ------ ------ -----  --- ---- ---
2019 06 15 19  16 33 15.124   -12 11 23.91  1.0324 2.0221 161.7 22.3 2.43 166
2019 06 15 20  16 33 12.262   -12 10 49.79  1.0326 2.0221 161.7 22.3 2.46 165
2019 06 15 21  16 33 09.402   -12 10 15.69  1.0327 2.0221 161.6 22.3 2.48 165
2019 06 15 22  16 33 06.544   -12 09 41.61  1.0328 2.0221 161.6 22.3 2.51 165
2019 06 15 23  16 33 03.689   -12 09 07.56  1.0329 2.0221 161.5 22.3 2.53 165
2019 06 16 00  16 33 00.836   -12 08 33.52  1.0330 2.0221 161.5 22.3 2.56 165
2019 06 16 01  16 32 57.986   -12 07 59.52  1.0332 2.0220 161.4 22.3 2.58 165
2019 06 16 02  16 32 55.138   -12 07 25.53  1.0333 2.0220 161.4 22.3 2.61 164
2019 06 16 03  16 32 52.292   -12 06 51.58  1.0334 2.0220 161.3 22.3 2.64 164
2019 06 16 04  16 32 49.449   -12 06 17.64  1.0335 2.0220 161.3 22.3 2.66 164
2019 06 16 05  16 32 46.608   -12 05 43.73  1.0337 2.0220 161.2 22.3 2.69 164
2019 06 16 06  16 32 43.769   -12 05 09.84  1.0338 2.0220 161.2 22.3 2.71 164
2019 06 16 07  16 32 40.933   -12 04 35.98  1.0339 2.0220 161.1 22.3 2.74 164
2019 06 16 08  16 32 38.099   -12 04 02.14  1.0340 2.0219 161.1 22.3 2.77 163
2019 06 16 09  16 32 35.268   -12 03 28.32  1.0342 2.0219 161.0 22.3 2.79 163
2019 06 16 10  16 32 32.439   -12 02 54.53  1.0343 2.0219 161.0 22.3 2.82 163
2019 06 16 11  16 32 29.612   -12 02 20.76  1.0344 2.0219 160.9 22.3 2.85 163
2019 06 16 12  16 32 26.788   -12 01 47.01  1.0346 2.0219 160.9 22.3 2.88 163
2019 06 16 13  16 32 23.966   -12 01 13.29  1.0347 2.0219 160.8 22.3 2.90 163
2019 06 16 14  16 32 21.146   -12 00 39.60  1.0348 2.0218 160.8 22.3 2.93 162
2019 06 16 15  16 32 18.329   -12 00 05.93  1.0349 2.0218 160.7 22.3 2.96 162
2019 06 16 16  16 32 15.514   -11 59 32.28  1.0351 2.0218 160.7 22.3 2.99 162
2019 06 16 17  16 32 12.702   -11 58 58.66  1.0352 2.0218 160.6 22.3 3.01 162
2019 06 16 18  16 32 09.893   -11 58 25.06  1.0353 2.0218 160.6 22.3 3.04 162
2019 06 16 19  16 32 07.085   -11 57 51.49  1.0355 2.0218 160.5 22.3 3.07 162
2019 06 16 20  16 32 04.280   -11 57 17.94  1.0356 2.0218 160.5 22.3 3.10 161
2019 06 16 21  16 32 01.478   -11 56 44.41  1.0357 2.0217 160.4 22.3 3.13 161
2019 06 16 22  16 31 58.678   -11 56 10.91  1.0359 2.0217 160.4 22.3 3.16 161
2019 06 16 23  16 31 55.880   -11 55 37.43  1.0360 2.0217 160.3 22.3 3.19 161
2019 06 17 00  16 31 53.085   -11 55 03.98  1.0361 2.0217 160.3 22.3 3.22 161
2019 06 17 01  16 31 50.293   -11 54 30.56  1.0363 2.0217 160.2 22.3 3.25 161
2019 06 17 02  16 31 47.503   -11 53 57.15  1.0364 2.0217 160.2 22.3 3.28 160
2019 06 17 03  16 31 44.715   -11 53 23.78  1.0365 2.0216 160.1 22.3 3.31 160
2019 06 17 04  16 31 41.930   -11 52 50.42  1.0367 2.0216 160.1 22.3 3.34 160
2019 06 17 05  16 31 39.147   -11 52 17.09  1.0368 2.0216 160.0 22.3 3.37 160
2019 06 17 06  16 31 36.367   -11 51 43.79  1.0369 2.0216 160.0 22.3 3.40 160
2019 06 17 07  16 31 33.590   -11 51 10.51  1.0371 2.0216 159.9 22.3 3.43 160
2019 06 17 08  16 31 30.814   -11 50 37.26  1.0372 2.0216 159.9 22.3 3.46 160
2019 06 17 09  16 31 28.042   -11 50 04.03  1.0373 2.0216 159.8 22.3 3.49 159
2019 06 17 10  16 31 25.272   -11 49 30.83  1.0375 2.0215 159.8 22.3 3.52 159
2019 06 17 11  16 31 22.504   -11 48 57.65  1.0376 2.0215 159.7 22.3 3.56 159
2019 06 17 12  16 31 19.739   -11 48 24.50  1.0377 2.0215 159.7 22.3 3.59 159
2019 06 17 13  16 31 16.977   -11 47 51.37  1.0379 2.0215 159.6 22.3 3.62 159
2019 06 17 14  16 31 14.217   -11 47 18.26  1.0380 2.0215 159.6 22.3 3.65 159
2019 06 17 15  16 31 11.459   -11 46 45.19  1.0382 2.0215 159.5 22.3 3.69 159
2019 06 17 16  16 31 08.705   -11 46 12.13  1.0383 2.0214 159.5 22.3 3.72 158
2019 06 17 17  16 31 05.952   -11 45 39.11  1.0384 2.0214 159.5 22.3 3.75 158
2019 06 17 18  16 31 03.203   -11 45 06.10  1.0386 2.0214 159.4 22.3 3.78 158